NR6G-12 Weather Reports


time (UTC)temp
C
wind
direction
speed
KPH
gust
KPH
rain 1hr
cm
rain 24hr
cm
rain mn
cm
humidity
%
barometer
mb
20260507210401 19 0 0.0 0.0 0.00 0.00 0.00 66 1020.4
20260507205801 19 0 0.0 0.0 0.00 0.00 0.00 68 1020.4
20260507205201 19 0 0.0 0.0 0.00 0.00 0.00 68 1020.4
20260507204601 18 0 0.0 0.0 0.00 0.00 0.00 70 1020.5
20260507204001 18 0 0.0 0.0 0.00 0.00 0.00 70 1020.6
20260507203401 18 0 0.0 0.0 0.00 0.00 0.00 70 1019.9
20260507202801 18 0 0.0 0.0 0.00 0.00 0.00 69 1019.9
20260507202201 18 0 0.0 0.0 0.00 0.00 0.00 68 1019.9
20260507201601 18 0 0.0 8.0 0.00 0.00 0.00 69 1019.9
20260507201001 18 223 1.6 8.0 0.00 0.00 0.00 70 1020.0
20260507200401 18 0 0.0 8.0 0.00 0.00 0.00 72 1020.1
20260507195801 18 0 0.0 8.0 0.00 0.00 0.00 69 1020.1
20260507195201 18 225 1.6 8.0 0.00 0.00 0.00 67 1020.0
20260507194601 19 0 0.0 0.0 0.00 0.00 0.00 68 1020.1
20260507194001 18 0 0.0 0.0 0.00 0.00 0.00 70 1020.1
20260507193401 18 0 0.0 0.0 0.00 0.00 0.00 70 1020.2
20260507192801 18 0 0.0 0.0 0.00 0.00 0.00 71 1020.2
20260507192201 18 0 0.0 0.0 0.00 0.00 0.00 70 1020.2
20260507191601 18 0 0.0 0.0 0.00 0.00 0.00 70 1020.2
20260507191001 18 0 0.0 0.0 0.00 0.00 0.00 70 1020.2
20260507190401 18 0 0.0 0.0 0.00 0.00 0.00 70 1020.2
20260507185801 17 0 0.0 0.0 0.00 0.00 0.00 71 1020.3
20260507185201 17 0 0.0 0.0 0.00 0.00 0.00 71 1020.3
20260507184601 17 0 0.0 0.0 0.00 0.00 0.00 71 1020.4
20260507184001 17 0 0.0 0.0 0.00 0.00 0.00 72 1020.4
20260507183401 17 0 0.0 0.0 0.00 0.00 0.00 69 1020.4
20260507182801 18 0 0.0 0.0 0.00 0.00 0.00 69 1020.4
20260507182201 18 0 0.0 0.0 0.00 0.00 0.00 68 1020.4
20260507181601 18 0 0.0 0.0 0.00 0.00 0.00 68 1020.5
20260507181001 18 0 0.0 3.2 0.00 0.00 0.00 70 1020.5
20260507180401 18 0 0.0 3.2 0.00 0.00 0.00 69 1020.6
20260507175801 18 0 0.0 3.2 0.00 0.00 0.00 70 1020.5
20260507175201 18 0 0.0 1.6 0.00 0.00 0.00 67 1020.6
20260507174601 18 0 0.0 0.0 0.00 0.00 0.00 70 1020.6
20260507174001 18 0 0.0 0.0 0.00 0.00 0.00 67 1020.6
20260507173401 18 0 0.0 0.0 0.00 0.00 0.00 68 1020.5
20260507172801 18 0 0.0 0.0 0.00 0.00 0.00 66 1020.6
20260507172201 18 0 0.0 0.0 0.00 0.00 0.00 68 1020.5
20260507171601 17 0 0.0 0.0 0.00 0.00 0.00 69 1020.5
20260507171001 17 0 0.0 0.0 0.00 0.00 0.00 72 1020.6
20260507170401 17 0 0.0 0.0 0.00 0.00 0.00 71 1020.6
20260507165801 17 0 0.0 0.0 0.00 0.00 0.00 69 1020.7
20260507165201 17 0 0.0 0.0 0.00 0.00 0.00 70 1020.7
20260507164601 17 0 0.0 0.0 0.00 0.00 0.00 69 1020.0
20260507164001 17 0 0.0 0.0 0.00 0.00 0.00 68 1020.0
20260507163401 17 0 0.0 1.6 0.00 0.00 0.00 68 1020.1
20260507162801 17 0 0.0 1.6 0.00 0.00 0.00 69 1020.1
20260507162201 17 0 0.0 0.0 0.00 0.00 0.00 71 1020.1
20260507161601 17 0 0.0 0.0 0.00 0.00 0.00 67 1020.2
20260507161001 16 0 0.0 0.0 0.00 0.00 0.00 60 1020.2
20260507160401 16 0 0.0 0.0 0.00 0.00 0.00 61 1020.2
20260507155801 16 0 0.0 0.0 0.00 0.00 0.00 62 1020.3
20260507155201 16 0 0.0 0.0 0.00 0.00 0.00 64 1020.3
20260507154603 16 0 0.0 0.0 0.00 0.00 0.00 62 1020.3
20260507154001 16 0 0.0 0.0 0.00 0.00 0.00 62 1020.3
20260507153401 15 0 0.0 0.0 0.00 0.00 0.00 66 1020.3
20260507152801 15 0 0.0 0.0 0.00 0.00 0.00 67 1020.4
20260507152201 15 0 0.0 0.0 0.00 0.00 0.00 67 1020.5
20260507151601 15 0 0.0 0.0 0.00 0.00 0.00 66 1020.5
20260507151001 15 0 0.0 1.6 0.00 0.00 0.00 69 1020.5
20260507150401 15 0 0.0 0.0 0.00 0.00 0.00 69 1020.5
20260507145801 15 0 0.0 0.0 0.00 0.00 0.00 68 1020.5
20260507145201 15 0 0.0 0.0 0.00 0.00 0.00 70 1020.4
20260507144001 15 0 0.0 0.0 0.00 0.00 0.00 74 1020.6
20260507143401 14 0 0.0 0.0 0.00 0.00 0.00 71 1020.6
20260507142801 14 0 0.0 0.0 0.00 0.00 0.00 70 1020.5
20260507142201 14 0 0.0 0.0 0.00 0.00 0.00 76 1020.5
20260507141601 13 0 0.0 0.0 0.00 0.00 0.00 70 1020.5
20260507141001 13 0 0.0 0.0 0.00 0.00 0.00 76 1020.5
20260507140403 13 0 0.0 0.0 0.00 0.00 0.00 68 1019.7
20260507135801 13 0 0.0 0.0 0.00 0.00 0.00 69 1019.8
20260507135201 13 0 0.0 0.0 0.00 0.00 0.00 69 1019.8
20260507134001 13 0 0.0 0.0 0.00 0.00 0.00 66 1019.6
20260507133401 13 0 0.0 0.0 0.00 0.00 0.00 68 1019.6
20260507132801 13 0 0.0 0.0 0.00 0.00 0.00 69 1019.7
20260507132201 12 0 0.0 0.0 0.00 0.00 0.00 70 1019.7
20260507131601 12 0 0.0 0.0 0.00 0.00 0.00 68 1019.6
20260507131001 12 0 0.0 0.0 0.00 0.00 0.00 62 1019.6
20260507130401 12 0 0.0 0.0 0.00 0.00 0.00 66 1019.6
20260507125801 12 0 0.0 0.0 0.00 0.00 0.00 65 1019.6
20260507125201 12 0 0.0 0.0 0.00 0.00 0.00 69 1019.6
20260507124601 12 0 0.0 0.0 0.00 0.00 0.00 69 1019.6
20260507124001 12 0 0.0 0.0 0.00 0.00 0.00 73 1019.6
20260507123401 12 0 0.0 0.0 0.00 0.00 0.00 77 1019.6
20260507122801 12 0 0.0 0.0 0.00 0.00 0.00 77 1019.6
20260507122201 12 0 0.0 0.0 0.00 0.00 0.00 78 1019.7
20260507121601 12 0 0.0 0.0 0.00 0.00 0.00 78 1019.6
20260507121001 12 0 0.0 0.0 0.00 0.00 0.00 80 1019.7
20260507120401 11 0 0.0 0.0 0.00 0.00 0.00 78 1019.7
20260507115801 11 0 0.0 0.0 0.00 0.00 0.00 78 1019.7
20260507115201 11 0 0.0 0.0 0.00 0.00 0.00 78 1019.7
20260507114601 11 0 0.0 0.0 0.00 0.00 0.00 80 1019.6
20260507114001 11 0 0.0 0.0 0.00 0.00 0.00 81 1019.7
20260507113401 11 0 0.0 0.0 0.00 0.00 0.00 83 1019.6
20260507112602 11 0 0.0 0.0 0.00 0.00 0.00 82 1019.9
20260507112002 11 0 0.0 0.0 0.00 0.00 0.00 80 1020.0
20260507111403 11 0 0.0 0.0 0.00 0.00 0.00 80 1020.0
20260507110802 11 0 0.0 0.0 0.00 0.00 0.00 81 1020.0
20260507110202 11 0 0.0 0.0 0.00 0.00 0.00 81 1020.1
20260507105602 11 0 0.0 0.0 0.00 0.00 0.00 82 1020.1
20260507105002 11 0 0.0 0.0 0.00 0.00 0.00 82 1020.2
20260507104402 11 0 0.0 0.0 0.00 0.00 0.00 83 1020.2
20260507103802 11 0 0.0 0.0 0.00 0.00 0.00 84 1020.2
20260507103202 11 0 0.0 0.0 0.00 0.00 0.00 84 1020.2
20260507102602 11 0 0.0 0.0 0.00 0.00 0.00 84 1020.3
20260507102002 11 0 0.0 0.0 0.00 0.00 0.00 84 1020.2
20260507101402 11 0 0.0 0.0 0.00 0.00 0.00 83 1020.2
20260507100802 11 0 0.0 0.0 0.00 0.00 0.00 83 1020.2
20260507100202 11 0 0.0 0.0 0.00 0.00 0.00 83 1020.2
20260507095602 11 0 0.0 0.0 0.00 0.00 0.00 82 1020.1
20260507095002 11 0 0.0 0.0 0.00 0.00 0.00 82 1020.1
20260507094402 11 0 0.0 0.0 0.00 0.00 0.00 82 1020.2
20260507093802 11 0 0.0 0.0 0.00 0.00 0.00 82 1020.2
20260507093202 11 0 0.0 0.0 0.00 0.00 0.00 81 1020.3
20260507092602 11 0 0.0 0.0 0.00 0.00 0.00 81 1020.4
20260507092002 11 0 0.0 0.0 0.00 0.00 0.00 81 1020.5
20260507091402 12 0 0.0 0.0 0.00 0.00 0.00 80 1020.5
20260507090802 12 0 0.0 0.0 0.00 0.00 0.00 80 1020.6
20260507090202 11 0 0.0 0.0 0.00 0.00 0.00 79 1020.6
20260507085602 11 0 0.0 0.0 0.00 0.00 0.00 80 1020.7
20260507085002 12 0 0.0 0.0 0.00 0.00 0.00 80 1020.7
20260507084402 12 0 0.0 0.0 0.00 0.00 0.00 80 1020.8
20260507083802 12 0 0.0 0.0 0.00 0.00 0.00 81 1020.9
20260507083202 12 0 0.0 0.0 0.00 0.00 0.00 81 1020.9
20260507082602 12 0 0.0 0.0 0.00 0.00 0.00 81 1020.9
20260507082003 12 0 0.0 0.0 0.00 0.00 0.00 81 1021.0
20260507081402 12 0 0.0 0.0 0.00 0.00 0.00 81 1021.0
20260507080802 12 0 0.0 0.0 0.00 0.00 0.00 81 1020.3
20260507080202 12 0 0.0 0.0 0.00 0.00 0.00 81 1020.4
20260507075602 12 0 0.0 0.0 0.00 0.00 0.00 81 1020.3
20260507075002 12 0 0.0 0.0 0.00 0.00 0.00 80 1020.3
20260507074402 12 0 0.0 0.0 0.00 0.00 0.00 80 1020.3
20260507073802 12 0 0.0 0.0 0.00 0.00 0.00 80 1020.5
20260507073202 12 0 0.0 0.0 0.00 0.00 0.00 80 1020.7
20260507072602 12 0 0.0 0.0 0.00 0.00 0.00 80 1020.6
20260507072004 12 0 0.0 0.0 0.00 0.00 0.00 80 1020.7
20260507071402 12 0 0.0 0.0 0.00 0.00 0.00 79 1020.6
20260507070802 12 0 0.0 0.0 0.00 0.00 0.00 79 1020.7
20260507070202 12 0 0.0 0.0 0.00 0.00 0.00 78 1020.7
20260507065602 12 0 0.0 0.0 0.00 0.00 0.00 78 1020.7
20260507065002 13 0 0.0 0.0 0.00 0.00 0.00 78 1020.6
20260507064402 13 0 0.0 0.0 0.00 0.00 0.00 78 1020.7
20260507063802 13 0 0.0 0.0 0.00 0.00 0.00 77 1020.7
20260507063202 13 0 0.0 0.0 0.00 0.00 0.00 76 1020.7
20260507062602 13 0 0.0 0.0 0.00 0.00 0.00 76 1020.6
20260507062003 13 0 0.0 0.0 0.00 0.00 0.00 74 1020.6
20260507061402 13 0 0.0 0.0 0.00 0.00 0.00 74 1020.6
20260507060802 13 0 0.0 0.0 0.00 0.00 0.00 74 1020.6
20260507060202 13 0 0.0 0.0 0.00 0.00 0.00 74 1020.7
20260507055604 13 0 0.0 0.0 0.00 0.00 0.00 74 1020.7
20260507055002 13 0 0.0 0.0 0.00 0.00 0.00 75 1020.7
20260507054402 13 0 0.0 0.0 0.00 0.00 0.00 75 1020.7
20260507053802 13 0 0.0 0.0 0.00 0.00 0.00 75 1020.7
20260507053202 13 0 0.0 0.0 0.00 0.00 0.00 77 1020.7
20260507052602 12 0 0.0 0.0 0.00 0.00 0.00 79 1020.7
20260507052003 12 0 0.0 0.0 0.00 0.00 0.00 81 1020.7
20260507051402 12 0 0.0 0.0 0.00 0.00 0.00 82 1020.7
20260507050802 12 0 0.0 0.0 0.00 0.00 0.00 83 1020.7
20260507050202 12 0 0.0 0.0 0.00 0.00 0.00 83 1020.7
20260507045602 12 0 0.0 0.0 0.00 0.00 0.00 83 1020.7
20260507045004 12 0 0.0 0.0 0.00 0.00 0.00 84 1020.6
20260507044402 11 0 0.0 0.0 0.00 0.00 0.00 84 1020.7
20260507043802 11 0 0.0 0.0 0.00 0.00 0.00 84 1020.7
20260507043202 11 0 0.0 0.0 0.00 0.00 0.00 84 1020.6
20260507042603 11 0 0.0 0.0 0.00 0.00 0.00 83 1020.6
20260507042003 11 0 0.0 0.0 0.00 0.00 0.00 83 1020.7
20260507041402 11 0 0.0 0.0 0.00 0.00 0.00 83 1020.7
20260507040802 11 0 0.0 0.0 0.00 0.00 0.00 83 1020.7
20260507040202 11 0 0.0 0.0 0.00 0.00 0.00 84 1020.7
20260507035602 11 0 0.0 0.0 0.00 0.00 0.00 84 1020.6
20260507035003 11 0 0.0 0.0 0.00 0.00 0.00 84 1020.5
20260507034402 11 0 0.0 0.0 0.00 0.00 0.00 84 1020.5
20260507033802 11 0 0.0 0.0 0.00 0.00 0.00 83 1020.6
20260507033202 11 0 0.0 0.0 0.00 0.00 0.00 83 1020.5
20260507032602 11 0 0.0 0.0 0.00 0.00 0.00 83 1019.7
20260507032002 11 0 0.0 0.0 0.00 0.00 0.00 83 1019.6
20260507031402 11 0 0.0 0.0 0.00 0.00 0.00 83 1019.6
20260507030802 11 0 0.0 0.0 0.00 0.00 0.00 83 1019.6
20260507030202 11 0 0.0 0.0 0.00 0.00 0.00 80 1019.6
20260507025602 12 0 0.0 0.0 0.00 0.00 0.00 79 1019.5
20260507025002 12 0 0.0 0.0 0.00 0.00 0.00 78 1019.4
20260507024201 12 0 0.0 0.0 0.00 0.00 0.00 78 1019.3
20260507023601 12 0 0.0 0.0 0.00 0.00 0.00 78 1019.4
20260507023002 12 0 0.0 0.0 0.00 0.00 0.00 79 1019.3
20260507022401 12 0 0.0 3.2 0.00 0.00 0.00 78 1019.3
20260507021801 12 0 0.0 4.8 0.00 0.00 0.00 78 1019.3
20260507021201 12 0 0.0 3.2 0.00 0.00 0.00 78 1019.3
20260507020601 12 0 0.0 3.2 0.00 0.00 0.00 77 1019.4
20260507020004 13 0 0.0 1.6 0.00 0.00 0.00 77 1019.3
20260507015401 13 0 0.0 6.4 0.00 0.00 0.00 76 1019.3
20260507014801 13 251 1.6 9.7 0.00 0.00 0.00 76 1019.4
20260507014201 13 244 1.6 11.3 0.00 0.00 0.00 76 1019.3
20260507013601 13 259 3.2 11.3 0.00 0.00 0.00 77 1019.3
20260507013003 13 247 3.2 9.7 0.00 0.00 0.00 75 1019.3
20260507012401 13 262 1.6 9.7 0.00 0.00 0.00 76 1019.2
20260507011801 14 0 0.0 8.0 0.00 0.00 0.00 72 1019.1
20260507011201 14 215 1.6 11.3 0.00 0.00 0.00 72 1019.1
20260507010601 15 237 3.2 11.3 0.00 0.00 0.00 72 1019.2
20260507010003 15 265 3.2 11.3 0.00 0.00 0.00 73 1019.1
20260507005401 14 218 1.6 8.0 0.00 0.00 0.00 71 1019.2
20260507004801 15 0 0.0 12.9 0.00 0.00 0.00 72 1019.2
20260507004201 15 196 1.6 11.3 0.00 0.00 0.00 72 1019.2
20260507003601 15 237 3.2 14.5 0.00 0.00 0.00 72 1019.3
20260507003001 15 216 6.4 16.1 0.00 0.00 0.00 70 1019.2
20260507002401 15 210 1.6 12.9 0.00 0.00 0.00 70 1019.2
20260507001801 15 0 0.0 9.7 0.00 0.00 0.00 69 1019.1
20260507001201 15 246 4.8 14.5 0.00 0.00 0.00 70 1019.2
20260507000601 15 205 3.2 14.5 0.00 0.00 0.00 70 1019.3
20260507000002 15 233 6.4 12.9 0.00 0.00 0.00 71 1019.2
20260506235401 15 235 4.8 14.5 0.00 0.00 0.00 70 1019.2
20260506234801 15 247 3.2 11.3 0.00 0.00 0.00 71 1019.3
20260506234201 15 230 4.8 12.9 0.00 0.00 0.00 71 1019.2
20260506233601 15 219 4.8 16.1 0.00 0.00 0.00 71 1019.4
20260506233003 15 260 6.4 16.1 0.00 0.00 0.00 71 1019.3
20260506232401 15 214 4.8 12.9 0.00 0.00 0.00 72 1018.6
20260506231801 15 253 4.8 12.9 0.00 0.00 0.00 73 1018.5
20260506231201 15 209 4.8 12.9 0.00 0.00 0.00 71 1018.6
20260506230601 15 215 3.2 11.3 0.00 0.00 0.00 71 1018.7
20260506230002 15 220 1.6 14.5 0.00 0.00 0.00 71 1018.7
20260506225401 15 217 1.6 12.9 0.00 0.00 0.00 71 1018.8
20260506224801 15 219 4.8 14.5 0.00 0.00 0.00 71 1018.9
20260506224201 15 227 4.8 11.3 0.00 0.00 0.00 70 1018.8
20260506223601 15 0 0.0 12.9 0.00 0.00 0.00 72 1018.9
20260506223001 15 231 4.8 11.3 0.00 0.00 0.00 71 1019.0
20260506222401 15 208 1.6 12.9 0.00 0.00 0.00 73 1019.0
20260506221801 15 199 1.6 12.9 0.00 0.00 0.00 71 1019.0
20260506221201 15 266 3.2 12.9 0.00 0.00 0.00 73 1019.1
20260506220601 15 216 3.2 12.9 0.00 0.00 0.00 74 1019.2
20260506220001 15 218 3.2 12.9 0.00 0.00 0.00 74 1019.2
20260506215401 15 0 0.0 9.7 0.00 0.00 0.00 71 1019.2
20260506214801 15 0 0.0 11.3 0.00 0.00 0.00 74 1019.2
20260506214201 15 261 1.6 9.7 0.00 0.00 0.00 74 1019.3
20260506213601 15 0 0.0 9.7 0.00 0.00 0.00 77 1019.4
20260506213001 15 203 3.2 8.0 0.00 0.00 0.00 74 1019.5
20260506212401 15 0 0.0 8.0 0.00 0.00 0.00 74 1019.5
20260506211801 15 0 0.0 11.3 0.00 0.00 0.00 76 1019.6
20260506211201 15 0 0.0 3.2 0.00 0.00 0.00 75 1019.6